Weather History for Yuma MCAS, AZ

Change the Weather History Date:

Wednesday, March 5, 2014

  Actual Average Record
Temperature  
Mean Temperature 72 °F 65 °F  
Max Temperature 88 °F 78 °F 97 °F (1910)
Min Temperature 56 °F 53 °F 34 °F (1894)
Degree Days  
Heating Degree Days 0 2  
Month to date heating degree days 4 11  
Since 1 July heating degree days 365 634  
Cooling Degree Days 7 3  
Month to date cooling degree days 14 11  
Year to date cooling degree days 128 47  
Growing Degree Days 21 (Base 50)    
Moisture  
Dew Point 37 °F    
Average Humidity 36    
Maximum Humidity 61    
Minimum Humidity 11    
Precipitation  
Precipitation 0.00 in 0.01 in 0.67 in (1907)
Month to date precipitation 0.07 0.06  
Year to date precipitation 0.07 0.82  
Sea Level Pressure  
Sea Level Pressure 29.96 in    
Wind  
Wind Speed 4 mph (NE)    
Max Wind Speed 16 mph    
Max Gust Speed 19 mph    
Visibility 10 miles    
Events      
T = Trace of Precipitation, MM = Missing Value Source: NWS Daily Summary

Daily Weather History Graph

Daily Weather History Graph

Search for Another Location

Airport:

Trip Planner

Search our weather history database for the weather conditions in past years. The results will help you decide how hot, cold, wet, or windy it might be!

Date:

Astronomy

Mar. 05, 2014 Rise Set
Actual Time 7:01 AM MST 6:38 PM MST
Civil Twilight 6:36 AM MST 7:03 PM MST
Nautical Twilight 6:08 AM MST 7:32 PM MST
Astronomical Twilight 5:39 AM MST 8:00 PM MST
Moon 9:46 AM MST (3/5) 11:33 PM MST (3/5)
Length of Visible Light 12h 27m
Length of Day
11h 37m
Waxing Crescent, 24% of the Moon is Illuminated
Mar 5
Waxing Crescent
Mar 8
First Quarter
Mar 16
Full
Mar 23
Last Quarter
Mar 30
New

Hourly Weather History & Observations

Time (MST) Temp. Dew Point Humidity Pressure Visibility Wind Dir Wind Speed Gust Speed Precip Events Conditions
12:57 AM 62.1 °F 43.0 °F 50% 29.93 in 10.0 mi Calm Calm - N/A   Clear
1:57 AM 61.0 °F 43.0 °F 52% 29.94 in 10.0 mi Calm Calm - N/A   Clear
2:57 AM 59.0 °F 42.1 °F 53% 29.93 in 10.0 mi Calm Calm - N/A   Clear
3:57 AM 55.9 °F 43.0 °F 62% 29.93 in 10.0 mi Calm Calm - N/A   Clear
4:57 AM 57.0 °F 41.0 °F 55% 29.94 in 10.0 mi Calm Calm - N/A   Clear
5:57 AM 55.9 °F 41.0 °F 57% 29.95 in 10.0 mi Calm Calm - N/A   Clear
6:57 AM 57.9 °F 41.0 °F 53% 29.96 in 10.0 mi ENE 3.5 mph - N/A   Partly Cloudy
7:57 AM 62.1 °F 39.9 °F 44% 29.99 in 10.0 mi NNE 8.1 mph - N/A   Partly Cloudy
8:57 AM 68.0 °F 39.0 °F 35% 30.01 in 10.0 mi ENE 8.1 mph - N/A   Scattered Clouds
9:57 AM 73.9 °F 39.9 °F 29% 30.04 in 10.0 mi ENE 10.4 mph - N/A   Scattered Clouds
10:57 AM 78.1 °F 37.9 °F 24% 30.04 in 10.0 mi ENE 13.8 mph - N/A   Mostly Cloudy
11:57 AM 81.0 °F 37.0 °F 21% 30.01 in 10.0 mi ENE 12.7 mph - N/A   Scattered Clouds
12:57 PM 84.0 °F 35.1 °F 17% 30.01 in 10.0 mi NE 9.2 mph - N/A   Scattered Clouds
1:57 PM 86.0 °F 32.0 °F 14% 29.97 in 10.0 mi ENE 8.1 mph - N/A   Scattered Clouds
2:57 PM 87.1 °F 30.0 °F 13% 29.94 in 10.0 mi Variable 4.6 mph - N/A   Scattered Clouds
3:57 PM 86.0 °F 27.0 °F 12% 29.93 in 10.0 mi Calm Calm - N/A   Scattered Clouds
4:57 PM 87.1 °F 27.0 °F 11% 29.92 in 10.0 mi Calm Calm - N/A   Scattered Clouds
5:57 PM 84.9 °F 28.9 °F 13% 29.91 in 10.0 mi Calm Calm - N/A   Scattered Clouds
6:57 PM 81.0 °F 30.0 °F 16% 29.93 in 10.0 mi West 5.8 mph - N/A   Scattered Clouds
7:57 PM 75.9 °F 35.1 °F 23% 29.94 in 10.0 mi Calm Calm - N/A   Scattered Clouds
8:57 PM 73.0 °F 37.0 °F 27% 29.96 in 10.0 mi WNW 8.1 mph - N/A   Clear
9:57 PM 71.1 °F 37.0 °F 29% 29.98 in 10.0 mi Calm Calm - N/A   Clear
10:57 PM 70.0 °F 37.9 °F 31% 29.97 in 10.0 mi Calm Calm - N/A   Clear
11:57 PM 66.0 °F 39.9 °F 38% 29.97 in 10.0 mi Calm Calm - N/A   Clear